Time,TemperatureF,DewpointF,PressureIn,WindDirection,WindDirectionDegrees,WindSpeedMPH,WindSpeedGustMPH,Humidity,HourlyPrecipIn,Conditions,Clouds,dailyrainin,SolarRadiationWatts/m^2,SoftwareType,DateUTC
2013-03-15 00:00:00,31.7,20.9,30.10,SW,233,1.0,5.0,64,0.00,,,0.00,0,Wunderground v.1.15,2013-03-15 04:00:00,
2013-03-15 00:01:00,31.6,20.8,30.09,SW,235,0.0,2.0,64,0.00,,,0.00,0,Wunderground v.1.15,2013-03-15 04:01:00,
2013-03-15 00:02:00,31.6,20.8,30.09,SW,235,0.0,2.0,64,0.00,,,0.00,0,Wunderground v.1.15,2013-03-15 04:02:00,
2013-03-15 00:07:00,31.5,21.1,30.09,WSW,238,2.0,2.0,65,0.00,,,0.00,0,Wunderground v.1.15,2013-03-15 04:07:00,
2013-03-15 00:09:00,31.4,21.0,30.09,WSW,238,2.0,2.0,65,0.00,,,0.00,0,Wunderground v.1.15,2013-03-15 04:09:00,
2013-03-15 00:15:00,31.5,20.7,30.09,SW,223,2.0,3.0,64,0.00,,,0.00,0,Wunderground v.1.15,2013-03-15 04:15:00,
2013-03-15 00:20:00,31.5,20.7,30.09,WSW,246,4.0,4.0,64,0.00,,,0.00,0,Wunderground v.1.15,2013-03-15 04:20:00,
2013-03-15 00:26:00,31.4,21.0,30.09,WSW,238,1.0,4.0,65,0.00,,,0.00,0,Wunderground v.1.15,2013-03-15 04:26:00,
2013-03-15 00:30:00,31.5,21.1,30.08,WSW,247,1.0,6.0,65,0.00,,,-99.99,0,WeatherLink 6.0.0,2013-03-15 04:30:00,
2013-03-15 00:32:00,31.3,21.3,30.08,WSW,238,1.0,1.0,66,0.00,,,0.00,0,Wunderground v.1.15,2013-03-15 04:32:00,
2013-03-15 00:38:00,31.3,20.9,30.09,SW,235,1.0,2.0,65,0.00,,,0.00,0,Wunderground v.1.15,2013-03-15 04:38:00,
2013-03-15 00:43:00,31.5,21.1,30.08,SW,236,0.0,2.0,65,0.00,,,0.00,0,Wunderground v.1.15,2013-03-15 04:43:00,
2013-03-15 00:48:00,31.6,20.8,30.08,SW,230,2.0,4.0,64,0.00,,,0.00,0,Wunderground v.1.15,2013-03-15 04:48:00,
2013-03-15 00:53:00,31.8,21.4,30.08,SW,230,1.0,2.0,65,0.00,,,0.00,0,Wunderground v.1.15,2013-03-15 04:53:00,
2013-03-15 00:59:00,31.9,21.5,30.08,SW,232,2.0,3.0,65,0.00,,,0.00,0,Wunderground v.1.15,2013-03-15 04:59:00,
2013-03-15 01:00:00,31.6,21.2,30.08,SW,225,2.0,8.0,65,0.00,,,-99.99,0,WeatherLink 6.0.0,2013-03-15 05:00:00,
2013-03-15 01:04:00,32.1,21.3,30.08,SW,222,1.0,4.0,64,0.00,,,0.00,0,Wunderground v.1.15,2013-03-15 05:04:00,
2013-03-15 01:10:00,32.3,21.1,30.07,SW,228,2.0,3.0,63,0.00,,,0.00,0,Wunderground v.1.15,2013-03-15 05:10:00,
2013-03-15 01:15:00,32.4,20.8,30.07,WSW,253,2.0,4.0,62,0.00,,,0.00,0,Wunderground v.1.15,2013-03-15 05:15:00,
2013-03-15 01:20:00,32.5,20.5,30.08,SW,234,4.0,4.0,61,0.00,,,0.00,0,Wunderground v.1.15,2013-03-15 05:20:00,
2013-03-15 01:26:00,32.7,20.3,30.08,SW,227,5.0,5.0,60,0.00,,,0.00,0,Wunderground v.1.15,2013-03-15 05:26:00,
2013-03-15 01:30:00,32.4,19.7,30.08,SW,225,3.0,8.0,59,0.00,,,-99.99,0,WeatherLink 6.0.0,2013-03-15 05:30:00,
2013-03-15 01:32:00,32.8,20.0,30.08,WSW,246,0.0,4.0,59,0.00,,,0.00,0,Wunderground v.1.15,2013-03-15 05:32:00,
2013-03-15 01:37:00,32.8,20.0,30.07,SW,234,4.0,9.0,59,0.00,,,0.00,0,Wunderground v.1.15,2013-03-15 05:37:00,
2013-03-15 01:43:00,32.8,20.0,30.07,West,281,2.0,5.0,59,0.00,,,0.00,0,Wunderground v.1.15,2013-03-15 05:43:00,
2013-03-15 01:49:00,32.8,20.0,30.07,WSW,250,5.0,6.0,59,0.00,,,0.00,0,Wunderground v.1.15,2013-03-15 05:49:00,
2013-03-15 01:54:00,32.8,20.4,30.06,SW,216,2.0,5.0,60,0.00,,,0.00,0,Wunderground v.1.15,2013-03-15 05:54:00,
2013-03-15 02:00:00,32.9,20.1,30.06,WSW,258,1.0,3.0,59,0.00,,,0.00,0,Wunderground v.1.15,2013-03-15 06:00:00,
2013-03-15 02:05:00,32.9,20.1,30.06,SW,227,3.0,6.0,59,0.00,,,0.00,0,Wunderground v.1.15,2013-03-15 06:05:00,
2013-03-15 02:10:00,32.9,19.7,30.06,SW,230,4.0,4.0,58,0.00,,,0.00,0,Wunderground v.1.15,2013-03-15 06:10:00,
2013-03-15 02:15:00,33.0,20.2,30.06,West,261,5.0,7.0,59,0.00,,,0.00,0,Wunderground v.1.15,2013-03-15 06:15:00,
2013-03-15 02:20:00,33.0,20.2,30.06,WSW,254,4.0,10.0,59,0.00,,,0.00,0,Wunderground v.1.15,2013-03-15 06:20:00,
2013-03-15 02:25:00,33.0,20.2,30.05,West,261,1.0,10.0,59,0.00,,,0.00,0,Wunderground v.1.15,2013-03-15 06:25:00,
2013-03-15 02:30:00,33.0,20.6,30.05,SW,221,4.0,7.0,60,0.00,,,0.00,0,Wunderground v.1.15,2013-03-15 06:30:00,
2013-03-15 02:35:00,33.0,20.6,30.05,WNW,292,2.0,7.0,60,0.00,,,0.00,0,Wunderground v.1.15,2013-03-15 06:35:00,
2013-03-15 02:40:00,33.0,21.0,30.05,West,271,3.0,3.0,61,0.00,,,0.00,0,Wunderground v.1.15,2013-03-15 06:40:00,
2013-03-15 02:45:00,33.0,21.0,30.04,SSW,204,4.0,8.0,61,0.00,,,0.00,0,Wunderground v.1.15,2013-03-15 06:45:00,
2013-03-15 02:50:00,33.0,21.4,30.03,SSW,196,2.0,4.0,62,0.00,,,0.00,0,Wunderground v.1.15,2013-03-15 06:50:00,
2013-03-15 02:55:00,33.0,21.4,30.04,SW,227,2.0,7.0,62,0.00,,,0.00,0,Wunderground v.1.15,2013-03-15 06:55:00,
2013-03-15 03:00:00,33.0,21.8,30.04,SW,225,3.0,8.0,63,0.00,,,-99.99,0,WeatherLink 6.0.0,2013-03-15 07:00:00,
2013-03-15 03:01:00,33.0,21.8,30.04,SW,221,4.0,4.0,63,0.00,,,0.00,0,Wunderground v.1.15,2013-03-15 07:01:00,
2013-03-15 03:06:00,33.0,21.8,30.04,SW,227,5.0,7.0,63,0.00,,,0.00,0,Wunderground v.1.15,2013-03-15 07:06:00,
2013-03-15 03:11:00,33.0,21.8,30.03,SW,234,2.0,3.0,63,0.00,,,0.00,0,Wunderground v.1.15,2013-03-15 07:11:00,
2013-03-15 03:16:00,32.9,22.0,30.03,SW,225,4.0,6.0,64,0.00,,,0.00,0,Wunderground v.1.15,2013-03-15 07:16:00,
2013-03-15 03:22:00,32.8,22.0,30.03,SW,234,2.0,4.0,64,0.00,,,0.00,0,Wunderground v.1.15,2013-03-15 07:22:00,
2013-03-15 03:27:00,32.6,22.1,30.03,SSW,201,2.0,7.0,65,0.00,,,0.00,0,Wunderground v.1.15,2013-03-15 07:27:00,
2013-03-15 03:30:00,32.9,22.8,30.03,SW,225,3.0,7.0,66,0.00,,,-99.99,0,WeatherLink 6.0.0,2013-03-15 07:30:00,
2013-03-15 03:32:00,32.4,22.3,30.03,SW,228,1.0,6.0,66,0.00,,,0.00,0,Wunderground v.1.15,2013-03-15 07:32:00,
2013-03-15 03:37:00,32.3,22.6,30.02,SW,228,1.0,7.0,67,0.00,,,0.00,0,Wunderground v.1.15,2013-03-15 07:37:00,
2013-03-15 03:42:00,32.3,22.9,30.02,SW,215,3.0,5.0,68,0.00,,,0.00,0,Wunderground v.1.15,2013-03-15 07:42:00,
2013-03-15 03:47:00,32.2,23.2,30.02,WSW,243,3.0,6.0,69,0.00,,,0.00,0,Wunderground v.1.15,2013-03-15 07:47:00,
2013-03-15 03:52:00,32.3,23.6,30.02,SW,215,1.0,5.0,70,0.00,,,0.00,0,Wunderground v.1.15,2013-03-15 07:52:00,
2013-03-15 03:57:00,32.3,23.6,30.01,SSW,204,4.0,6.0,70,0.00,,,0.00,0,Wunderground v.1.15,2013-03-15 07:57:00,
2013-03-15 04:00:00,32.3,23.9,30.01,SW,225,3.0,7.0,71,0.00,,,-99.99,0,WeatherLink 6.0.0,2013-03-15 08:00:00,
2013-03-15 04:02:00,32.4,24.0,30.01,SW,214,1.0,8.0,71,0.00,,,0.00,0,Wunderground v.1.15,2013-03-15 08:02:00,
2013-03-15 04:07:00,32.4,24.0,30.01,SW,231,3.0,8.0,71,0.00,,,0.00,0,Wunderground v.1.15,2013-03-15 08:07:00,
2013-03-15 04:12:00,32.3,24.3,30.00,SSW,209,2.0,3.0,72,0.00,,,0.00,0,Wunderground v.1.15,2013-03-15 08:12:00,
2013-03-15 04:17:00,32.3,24.6,30.00,SW,236,2.0,6.0,73,0.00,,,0.00,0,Wunderground v.1.15,2013-03-15 08:17:00,
2013-03-15 04:22:00,32.2,24.5,30.00,West,262,1.0,4.0,73,0.00,,,0.00,0,Wunderground v.1.15,2013-03-15 08:22:00,
2013-03-15 04:27:00,32.2,24.5,30.00,SW,230,3.0,8.0,73,0.00,,,0.00,0,Wunderground v.1.15,2013-03-15 08:27:00,
2013-03-15 04:30:00,32.3,24.9,30.00,SW,225,3.0,8.0,74,0.00,,,-99.99,0,WeatherLink 6.0.0,2013-03-15 08:30:00,
2013-03-15 04:32:00,32.1,24.7,30.00,WSW,239,1.0,4.0,74,0.00,,,0.00,0,Wunderground v.1.15,2013-03-15 08:32:00,
2013-03-15 04:37:00,32.1,24.7,30.00,SW,225,2.0,5.0,74,0.00,,,0.00,0,Wunderground v.1.15,2013-03-15 08:37:00,
2013-03-15 04:42:00,32.0,25.0,29.99,SW,223,2.0,7.0,75,0.00,,,0.00,0,Wunderground v.1.15,2013-03-15 08:42:00,
2013-03-15 04:47:00,32.0,25.3,29.99,SW,229,8.0,8.0,76,0.00,,,0.00,0,Wunderground v.1.15,2013-03-15 08:47:00,
2013-03-15 04:52:00,31.9,25.2,29.99,SW,226,1.0,6.0,76,0.00,,,0.00,0,Wunderground v.1.15,2013-03-15 08:52:00,
2013-03-15 04:57:00,31.8,25.1,29.99,SW,215,2.0,8.0,76,0.00,,,0.00,0,Wunderground v.1.15,2013-03-15 08:57:00,
2013-03-15 05:00:00,32.0,25.6,29.99,SW,225,3.0,9.0,77,0.00,,,-99.99,0,WeatherLink 6.0.0,2013-03-15 09:00:00,
2013-03-15 05:02:00,31.8,25.4,29.99,SW,236,5.0,7.0,77,0.00,,,0.00,0,Wunderground v.1.15,2013-03-15 09:02:00,
2013-03-15 05:07:00,31.7,25.6,29.98,SW,235,4.0,7.0,78,0.00,,,0.00,0,Wunderground v.1.15,2013-03-15 09:07:00,
2013-03-15 05:12:00,31.7,25.9,29.98,WSW,241,6.0,6.0,79,0.00,,,0.00,0,Wunderground v.1.15,2013-03-15 09:12:00,
2013-03-15 05:17:00,31.7,25.9,29.97,West,271,6.0,10.0,79,0.00,,,0.00,0,Wunderground v.1.15,2013-03-15 09:17:00,
2013-03-15 05:22:00,31.7,26.2,29.97,SW,225,2.0,9.0,80,0.00,,,0.00,0,Wunderground v.1.15,2013-03-15 09:22:00,
2013-03-15 05:27:00,31.7,26.2,29.97,WNW,286,11.0,13.0,80,0.00,,,0.00,0,Wunderground v.1.15,2013-03-15 09:27:00,
2013-03-15 05:30:00,31.7,26.2,29.97,SW,225,4.0,13.0,80,0.00,,,-99.99,0,WeatherLink 6.0.0,2013-03-15 09:30:00,
2013-03-15 05:32:00,31.9,26.4,29.97,West,262,6.0,7.0,80,0.00,,,0.00,0,Wunderground v.1.15,2013-03-15 09:32:00,
2013-03-15 05:37:00,32.0,26.8,29.97,WSW,240,5.0,22.0,81,0.00,,,0.00,0,Wunderground v.1.15,2013-03-15 09:37:00,
2013-03-15 05:43:00,32.0,26.8,29.97,SW,217,2.0,8.0,81,0.00,,,0.00,0,Wunderground v.1.15,2013-03-15 09:43:00,
2013-03-15 05:48:00,32.1,26.9,29.97,WSW,241,4.0,12.0,81,0.00,,,0.00,0,Wunderground v.1.15,2013-03-15 09:48:00,
2013-03-15 05:53:00,32.2,27.0,29.97,West,274,2.0,7.0,81,0.00,,,0.00,0,Wunderground v.1.15,2013-03-15 09:53:00,
2013-03-15 05:58:00,32.2,27.3,29.97,SW,234,4.0,9.0,82,0.00,,,0.00,0,Wunderground v.1.15,2013-03-15 09:58:00,
2013-03-15 06:00:00,32.0,27.1,29.97,WSW,247,5.0,22.0,82,0.00,,,-99.99,0,WeatherLink 6.0.0,2013-03-15 10:00:00,
2013-03-15 06:03:00,32.3,27.4,29.97,SW,228,1.0,7.0,82,0.00,,,0.00,0,Wunderground v.1.15,2013-03-15 10:03:00,
2013-03-15 06:08:00,32.3,27.4,29.97,SW,234,2.0,11.0,82,0.00,,,0.00,0,Wunderground v.1.15,2013-03-15 10:08:00,
2013-03-15 06:13:00,32.3,27.4,29.96,WSW,257,6.0,12.0,82,0.00,,,0.00,0,Wunderground v.1.15,2013-03-15 10:13:00,
2013-03-15 06:18:00,32.3,27.4,29.96,SW,230,2.0,12.0,82,0.00,,,0.00,0,Wunderground v.1.15,2013-03-15 10:18:00,
2013-03-15 06:23:00,32.4,27.5,29.96,SW,215,8.0,9.0,82,0.00,,,0.00,0,Wunderground v.1.15,2013-03-15 10:23:00,
2013-03-15 06:28:00,32.4,27.8,29.95,SW,221,3.0,9.0,83,0.00,,,0.00,0,Wunderground v.1.15,2013-03-15 10:28:00,
2013-03-15 06:30:00,32.3,27.7,29.95,SW,225,4.0,12.0,83,0.00,,,-99.99,0,WeatherLink 6.0.0,2013-03-15 10:30:00,
2013-03-15 06:33:00,32.4,27.8,29.95,WSW,240,3.0,6.0,83,0.00,,,0.00,0,Wunderground v.1.15,2013-03-15 10:33:00,
2013-03-15 06:38:00,32.5,27.9,29.95,SW,235,5.0,6.0,83,0.00,,,0.00,0,Wunderground v.1.15,2013-03-15 10:38:00,
2013-03-15 06:43:00,32.5,27.9,29.95,SW,234,2.0,4.0,83,0.00,,,0.00,0,Wunderground v.1.15,2013-03-15 10:43:00,
2013-03-15 06:48:00,32.5,27.9,29.95,SSW,211,4.0,8.0,83,0.00,,,0.00,0,Wunderground v.1.15,2013-03-15 10:48:00,
2013-03-15 06:53:00,32.6,28.0,29.95,SW,224,3.0,7.0,83,0.00,,,0.00,0,Wunderground v.1.15,2013-03-15 10:53:00,
2013-03-15 06:58:00,32.6,28.3,29.94,SW,223,1.0,10.0,84,0.00,,,0.00,0,Wunderground v.1.15,2013-03-15 10:58:00,
2013-03-15 07:00:00,32.5,28.2,29.94,SW,225,3.0,10.0,84,0.00,,,-99.99,0,WeatherLink 6.0.0,2013-03-15 11:00:00,
2013-03-15 07:03:00,32.6,28.3,29.94,SW,220,1.0,5.0,84,0.00,,,0.00,0,Wunderground v.1.15,2013-03-15 11:03:00,
2013-03-15 07:08:00,32.6,28.3,29.94,South,183,2.0,6.0,84,0.00,,,0.00,0,Wunderground v.1.15,2013-03-15 11:08:00,
2013-03-15 07:13:00,32.6,28.3,29.94,SW,215,3.0,5.0,84,0.00,,,0.00,0,Wunderground v.1.15,2013-03-15 11:13:00,
2013-03-15 07:18:00,32.7,28.4,29.94,SW,225,7.0,9.0,84,0.00,,,0.00,0,Wunderground v.1.15,2013-03-15 11:18:00,
2013-03-15 07:23:00,32.8,28.5,29.94,SW,230,9.0,9.0,84,0.00,,,0.00,0,Wunderground v.1.15,2013-03-15 11:23:00,
2013-03-15 07:28:00,32.8,28.5,29.93,SW,234,1.0,9.0,84,0.00,,,0.00,0,Wunderground v.1.15,2013-03-15 11:28:00,
2013-03-15 07:30:00,32.7,28.4,29.93,SW,225,3.0,9.0,84,0.00,,,-99.99,0,WeatherLink 6.0.0,2013-03-15 11:30:00,
2013-03-15 07:33:00,32.8,28.5,29.93,SW,227,5.0,7.0,84,0.00,,,0.00,0,Wunderground v.1.15,2013-03-15 11:33:00,
2013-03-15 07:38:00,32.9,28.6,29.93,WSW,247,8.0,10.0,84,0.00,,,0.00,0,Wunderground v.1.15,2013-03-15 11:38:00,
2013-03-15 07:43:00,32.9,28.6,29.93,SW,235,2.0,8.0,84,0.00,,,0.00,0,Wunderground v.1.15,2013-03-15 11:43:00,
2013-03-15 07:48:00,33.0,28.7,29.93,WSW,248,3.0,8.0,84,0.00,,,0.00,0,Wunderground v.1.15,2013-03-15 11:48:00,
2013-03-15 07:53:00,33.0,28.7,29.92,WSW,244,4.0,9.0,84,0.00,,,0.00,0,Wunderground v.1.15,2013-03-15 11:53:00,
2013-03-15 07:58:00,33.0,28.7,29.92,West,263,3.0,10.0,84,0.00,,,0.00,5,Wunderground v.1.15,2013-03-15 11:58:00,
2013-03-15 08:00:00,32.9,28.6,29.92,WSW,247,4.0,10.0,84,0.00,,,-99.99,1,WeatherLink 6.0.0,2013-03-15 12:00:00,
2013-03-15 08:03:00,33.1,28.8,29.93,SW,236,7.0,11.0,84,0.00,,,0.00,7,Wunderground v.1.15,2013-03-15 12:03:00,
2013-03-15 08:08:00,33.2,28.9,29.92,SW,229,4.0,11.0,84,0.00,,,0.00,11,Wunderground v.1.15,2013-03-15 12:08:00,
2013-03-15 08:13:00,33.2,28.9,29.92,SW,215,4.0,7.0,84,0.00,,,0.00,12,Wunderground v.1.15,2013-03-15 12:13:00,
2013-03-15 08:18:00,33.2,28.9,29.92,SW,224,5.0,10.0,84,0.00,,,0.00,16,Wunderground v.1.15,2013-03-15 12:18:00,
2013-03-15 08:23:00,33.3,29.0,29.92,West,271,6.0,10.0,84,0.00,,,0.00,18,Wunderground v.1.15,2013-03-15 12:23:00,
2013-03-15 08:28:00,33.4,29.1,29.93,WSW,253,6.0,13.0,84,0.00,,,0.00,18,Wunderground v.1.15,2013-03-15 12:28:00,
2013-03-15 08:30:00,33.2,28.9,29.93,WSW,247,5.0,13.0,84,0.00,,,-99.99,14,WeatherLink 6.0.0,2013-03-15 12:30:00,
2013-03-15 08:33:00,33.4,29.1,29.93,SW,224,2.0,7.0,84,0.00,,,0.00,21,Wunderground v.1.15,2013-03-15 12:33:00,
2013-03-15 08:38:00,33.5,28.9,29.93,WSW,248,3.0,10.0,83,0.00,,,0.00,21,Wunderground v.1.15,2013-03-15 12:38:00,
2013-03-15 08:43:00,33.5,28.9,29.93,SW,234,3.0,10.0,83,0.00,,,0.00,30,Wunderground v.1.15,2013-03-15 12:43:00,
2013-03-15 08:48:00,33.6,29.0,29.93,West,267,5.0,11.0,83,0.00,,,0.00,39,Wunderground v.1.15,2013-03-15 12:48:00,
2013-03-15 08:53:00,33.6,29.0,29.93,West,275,3.0,7.0,83,0.00,,,0.00,37,Wunderground v.1.15,2013-03-15 12:53:00,
2013-03-15 08:58:00,33.7,29.1,29.93,SW,234,3.0,9.0,83,0.00,,,0.00,54,Wunderground v.1.15,2013-03-15 12:58:00,
2013-03-15 09:00:00,33.5,28.9,29.93,WSW,247,5.0,11.0,83,0.00,,,-99.99,33,WeatherLink 6.0.0,2013-03-15 13:00:00,
2013-03-15 09:03:00,33.8,29.2,29.93,SW,236,4.0,9.0,83,0.00,,,0.00,54,Wunderground v.1.15,2013-03-15 13:03:00,
2013-03-15 09:08:00,33.8,29.2,29.93,West,270,6.0,10.0,83,0.00,,,0.00,54,Wunderground v.1.15,2013-03-15 13:08:00,
2013-03-15 09:13:00,33.8,29.2,29.93,SW,233,2.0,11.0,83,0.00,,,0.00,54,Wunderground v.1.15,2013-03-15 13:13:00,
2013-03-15 09:18:00,33.9,29.3,29.93,West,266,3.0,11.0,83,0.00,,,0.00,60,Wunderground v.1.15,2013-03-15 13:18:00,
2013-03-15 09:23:00,33.9,29.3,29.93,WSW,254,1.0,11.0,83,0.00,,,0.00,62,Wunderground v.1.15,2013-03-15 13:23:00,
2013-03-15 09:28:00,34.0,29.4,29.93,WSW,248,4.0,11.0,83,0.00,,,0.00,63,Wunderground v.1.15,2013-03-15 13:28:00,
2013-03-15 09:30:00,33.9,29.3,29.93,West,270,5.0,13.0,83,0.00,,,-99.99,57,WeatherLink 6.0.0,2013-03-15 13:30:00,
2013-03-15 09:33:00,34.1,29.2,29.93,West,266,3.0,8.0,82,0.00,,,0.00,62,Wunderground v.1.15,2013-03-15 13:33:00,
2013-03-15 09:38:00,34.1,29.5,29.92,WSW,247,4.0,8.0,83,0.00,,,0.00,74,Wunderground v.1.15,2013-03-15 13:38:00,
2013-03-15 09:43:00,34.2,29.6,29.93,West,267,6.0,9.0,83,0.00,,,0.00,69,Wunderground v.1.15,2013-03-15 13:43:00,
2013-03-15 09:49:00,34.1,29.5,29.92,West,261,7.0,11.0,83,0.00,,,0.00,63,Wunderground v.1.15,2013-03-15 13:49:00,
2013-03-15 09:54:00,34.0,29.1,29.92,West,264,5.0,10.0,82,0.00,,,0.00,69,Wunderground v.1.15,2013-03-15 13:54:00,
2013-03-15 09:59:00,33.9,29.3,29.92,WSW,254,6.0,11.0,83,0.00,,,0.00,84,Wunderground v.1.15,2013-03-15 13:59:00,
2013-03-15 10:00:00,34.1,29.5,29.92,West,270,5.0,14.0,83,0.00,,,-99.99,69,WeatherLink 6.0.0,2013-03-15 14:00:00,
2013-03-15 10:04:00,34.0,29.4,29.92,West,270,0.0,8.0,83,0.00,,,0.00,125,Wunderground v.1.15,2013-03-15 14:04:00,
2013-03-15 10:09:00,34.2,29.6,29.92,WSW,256,4.0,8.0,83,0.00,,,0.00,97,Wunderground v.1.15,2013-03-15 14:09:00,
2013-03-15 10:14:00,34.3,29.4,29.92,SW,235,6.0,14.0,82,0.00,,,0.00,109,Wunderground v.1.15,2013-03-15 14:14:00,
2013-03-15 10:19:00,34.4,29.5,29.91,WSW,242,9.0,14.0,82,0.00,,,0.00,167,Wunderground v.1.15,2013-03-15 14:19:00,
2013-03-15 10:24:00,34.4,29.5,29.91,WSW,249,8.0,14.0,82,0.00,,,0.00,171,Wunderground v.1.15,2013-03-15 14:24:00,
2013-03-15 10:29:00,34.6,29.7,29.91,WSW,254,6.0,14.0,82,0.00,,,0.00,141,Wunderground v.1.15,2013-03-15 14:29:00,
2013-03-15 10:30:00,34.3,29.4,29.91,West,270,5.0,14.0,82,0.00,,,-99.99,136,WeatherLink 6.0.0,2013-03-15 14:30:00,
2013-03-15 10:34:00,34.8,29.6,29.91,WNW,283,6.0,9.0,81,0.00,,,0.00,186,Wunderground v.1.15,2013-03-15 14:34:00,
2013-03-15 10:39:00,34.8,29.6,29.91,SW,226,11.0,11.0,81,0.00,,,0.00,142,Wunderground v.1.15,2013-03-15 14:39:00,
2013-03-15 10:44:00,34.8,29.6,29.91,WSW,245,7.0,8.0,81,0.00,,,0.00,156,Wunderground v.1.15,2013-03-15 14:44:00,
2013-03-15 10:49:00,34.9,29.7,29.91,West,261,10.0,13.0,81,0.00,,,0.00,135,Wunderground v.1.15,2013-03-15 14:49:00,
2013-03-15 10:54:00,34.9,29.7,29.91,SSW,200,5.0,8.0,81,0.00,,,0.00,141,Wunderground v.1.15,2013-03-15 14:54:00,
2013-03-15 10:59:00,35.1,29.9,29.91,SW,219,5.0,8.0,81,0.00,,,0.00,148,Wunderground v.1.15,2013-03-15 14:59:00,
2013-03-15 11:00:00,34.9,29.7,29.91,West,270,4.0,13.0,81,0.00,,,-99.99,150,WeatherLink 6.0.0,2013-03-15 15:00:00,
2013-03-15 11:04:00,35.2,30.0,29.90,SSW,202,2.0,9.0,81,0.00,,,0.00,186,Wunderground v.1.15,2013-03-15 15:04:00,
2013-03-15 11:09:00,35.4,29.8,29.90,SW,215,2.0,12.0,80,0.00,,,0.00,200,Wunderground v.1.15,2013-03-15 15:09:00,
2013-03-15 11:14:00,35.6,30.0,29.91,WSW,238,3.0,7.0,80,0.00,,,0.00,160,Wunderground v.1.15,2013-03-15 15:14:00,
2013-03-15 11:19:00,35.6,29.7,29.91,WSW,247,4.0,11.0,79,0.00,,,0.00,128,Wunderground v.1.15,2013-03-15 15:19:00,
2013-03-15 11:24:00,35.7,30.1,29.91,West,270,5.0,8.0,80,0.00,,,0.00,135,Wunderground v.1.15,2013-03-15 15:24:00,
2013-03-15 11:29:00,35.7,29.8,29.91,WSW,253,4.0,9.0,79,0.00,,,0.00,128,Wunderground v.1.15,2013-03-15 15:29:00,
2013-03-15 11:30:00,35.5,29.6,29.91,West,270,4.0,13.0,79,0.00,,,-99.99,160,WeatherLink 6.0.0,2013-03-15 15:30:00,
2013-03-15 11:34:00,35.5,29.6,29.91,WSW,250,3.0,12.0,79,0.00,,,0.00,178,Wunderground v.1.15,2013-03-15 15:34:00,
2013-03-15 11:39:00,35.8,30.2,29.90,West,268,2.0,12.0,80,0.00,,,0.00,199,Wunderground v.1.15,2013-03-15 15:39:00,
2013-03-15 11:44:00,36.2,30.3,29.91,WNW,292,7.0,11.0,79,0.00,,,0.00,179,Wunderground v.1.15,2013-03-15 15:44:00,
2013-03-15 11:49:00,36.3,30.4,29.90,West,273,5.0,11.0,79,0.00,,,0.00,209,Wunderground v.1.15,2013-03-15 15:49:00,
2013-03-15 11:54:00,36.4,30.2,29.91,West,276,7.0,8.0,78,0.00,,,0.00,172,Wunderground v.1.15,2013-03-15 15:54:00,
2013-03-15 11:59:00,36.5,30.6,29.91,WNW,289,7.0,15.0,79,0.00,,,0.00,204,Wunderground v.1.15,2013-03-15 15:59:00,
2013-03-15 12:00:00,36.1,29.9,29.90,West,270,5.0,15.0,78,0.00,,,-99.99,189,WeatherLink 6.0.0,2013-03-15 16:00:00,
2013-03-15 12:04:00,36.6,30.4,29.91,WNW,293,4.0,10.0,78,0.00,,,0.00,202,Wunderground v.1.15,2013-03-15 16:04:00,
2013-03-15 12:09:00,36.5,30.3,29.91,West,281,3.0,12.0,78,0.00,,,0.00,185,Wunderground v.1.15,2013-03-15 16:09:00,
2013-03-15 12:14:00,36.7,30.5,29.91,SW,233,4.0,12.0,78,0.00,,,0.00,216,Wunderground v.1.15,2013-03-15 16:14:00,
2013-03-15 12:19:00,36.6,30.4,29.91,WSW,240,6.0,16.0,78,0.00,,,0.00,174,Wunderground v.1.15,2013-03-15 16:19:00,
2013-03-15 12:24:00,36.7,30.5,29.91,West,277,10.0,12.0,78,0.00,,,0.00,160,Wunderground v.1.15,2013-03-15 16:24:00,
2013-03-15 12:29:00,36.6,30.4,29.91,WSW,255,7.0,12.0,78,0.00,,,0.00,169,Wunderground v.1.15,2013-03-15 16:29:00,
2013-03-15 12:30:00,36.6,30.4,29.91,West,270,6.0,16.0,78,0.00,,,-99.99,189,WeatherLink 6.0.0,2013-03-15 16:30:00,
2013-03-15 12:34:00,36.5,30.3,29.91,SSW,207,4.0,9.0,78,0.00,,,0.00,125,Wunderground v.1.15,2013-03-15 16:34:00,
2013-03-15 12:39:00,36.5,30.3,29.91,West,271,1.0,12.0,78,0.00,,,0.00,130,Wunderground v.1.15,2013-03-15 16:39:00,
2013-03-15 12:44:00,36.6,30.4,29.91,WSW,238,6.0,8.0,78,0.00,,,0.00,107,Wunderground v.1.15,2013-03-15 16:44:00,
2013-03-15 12:49:00,36.5,30.3,29.91,WSW,238,3.0,10.0,78,0.00,,,0.00,104,Wunderground v.1.15,2013-03-15 16:49:00,
2013-03-15 12:54:00,36.5,30.3,29.91,WNW,285,10.0,12.0,78,0.00,,,0.00,109,Wunderground v.1.15,2013-03-15 16:54:00,
2013-03-15 12:59:00,36.4,30.5,29.91,WSW,242,2.0,12.0,79,0.00,,,0.00,109,Wunderground v.1.15,2013-03-15 16:59:00,
2013-03-15 13:00:00,36.5,30.6,29.91,West,270,4.0,12.0,79,0.00,,,-99.99,114,WeatherLink 6.0.0,2013-03-15 17:00:00,
2013-03-15 13:04:00,36.5,30.6,29.91,West,265,4.0,9.0,79,0.00,,,0.00,123,Wunderground v.1.15,2013-03-15 17:04:00,
2013-03-15 13:09:00,36.5,30.6,29.91,WSW,254,3.0,9.0,79,0.00,,,0.00,128,Wunderground v.1.15,2013-03-15 17:09:00,
2013-03-15 13:14:00,36.6,30.7,29.91,SW,225,2.0,8.0,79,0.00,,,0.00,116,Wunderground v.1.15,2013-03-15 17:14:00,
2013-03-15 13:19:00,36.5,30.6,29.91,WSW,252,5.0,11.0,79,0.00,,,0.00,128,Wunderground v.1.15,2013-03-15 17:19:00,
2013-03-15 13:24:00,36.5,30.6,29.91,SW,233,1.0,7.0,79,0.00,,,0.00,132,Wunderground v.1.15,2013-03-15 17:24:00,
2013-03-15 13:29:00,36.8,30.9,29.91,West,267,3.0,7.0,79,0.00,,,0.00,179,Wunderground v.1.15,2013-03-15 17:29:00,
2013-03-15 13:30:00,36.6,30.7,29.91,West,270,4.0,11.0,79,0.00,,,-99.99,133,WeatherLink 6.0.0,2013-03-15 17:30:00,
2013-03-15 13:34:00,37.2,31.0,29.91,West,273,3.0,9.0,78,0.00,,,0.00,265,Wunderground v.1.15,2013-03-15 17:34:00,
2013-03-15 13:39:00,37.5,31.3,29.90,WSW,244,3.0,9.0,78,0.00,,,0.00,288,Wunderground v.1.15,2013-03-15 17:39:00,
2013-03-15 13:44:00,37.6,31.0,29.90,WNW,298,4.0,9.0,77,0.00,,,0.00,276,Wunderground v.1.15,2013-03-15 17:44:00,
2013-03-15 13:49:00,37.7,31.5,29.90,WSW,253,9.0,9.0,78,0.00,,,0.00,325,Wunderground v.1.15,2013-03-15 17:49:00,
2013-03-15 13:54:00,37.9,31.3,29.90,SW,226,0.0,10.0,77,0.00,,,0.00,359,Wunderground v.1.15,2013-03-15 17:54:00,
2013-03-15 13:59:00,38.3,31.4,29.90,West,271,6.0,10.0,76,0.00,,,0.00,313,Wunderground v.1.15,2013-03-15 17:59:00,
2013-03-15 14:00:00,37.6,30.7,29.90,West,270,4.0,11.0,76,0.00,,,-99.99,294,WeatherLink 6.0.0,2013-03-15 18:00:00,
2013-03-15 14:04:00,38.3,31.4,29.90,West,267,10.0,10.0,76,0.00,,,0.00,322,Wunderground v.1.15,2013-03-15 18:04:00,
2013-03-15 14:09:00,38.4,31.5,29.89,West,271,7.0,10.0,76,0.00,,,0.00,371,Wunderground v.1.15,2013-03-15 18:09:00,
2013-03-15 14:14:00,38.6,31.4,29.89,WSW,252,5.0,10.0,75,0.00,,,0.00,329,Wunderground v.1.15,2013-03-15 18:14:00,
2013-03-15 14:19:00,38.7,31.5,29.89,West,273,1.0,10.0,75,0.00,,,0.00,262,Wunderground v.1.15,2013-03-15 18:19:00,
2013-03-15 14:24:00,38.9,31.6,29.88,West,265,6.0,8.0,75,0.00,,,0.00,251,Wunderground v.1.15,2013-03-15 18:24:00,
2013-03-15 14:29:00,39.1,31.8,29.88,WNW,294,0.0,8.0,75,0.00,,,0.00,250,Wunderground v.1.15,2013-03-15 18:29:00,
2013-03-15 14:30:00,38.6,31.4,29.88,West,270,4.0,10.0,75,0.00,,,-99.99,299,WeatherLink 6.0.0,2013-03-15 18:30:00,
2013-03-15 14:34:00,39.1,31.5,29.88,WSW,243,4.0,8.0,74,0.00,,,0.00,290,Wunderground v.1.15,2013-03-15 18:34:00,
2013-03-15 14:39:00,39.2,31.6,29.88,SW,229,2.0,8.0,74,0.00,,,0.00,199,Wunderground v.1.15,2013-03-15 18:39:00,
2013-03-15 14:44:00,39.2,31.9,29.88,WNW,293,1.0,6.0,75,0.00,,,0.00,246,Wunderground v.1.15,2013-03-15 18:44:00,
2013-03-15 14:49:00,39.3,31.7,29.88,WSW,253,5.0,6.0,74,0.00,,,0.00,253,Wunderground v.1.15,2013-03-15 18:49:00,
2013-03-15 14:54:00,39.4,31.8,29.87,West,259,6.0,7.0,74,0.00,,,0.00,223,Wunderground v.1.15,2013-03-15 18:54:00,
2013-03-15 14:59:00,39.5,31.9,29.87,WSW,258,7.0,7.0,74,0.00,,,0.00,229,Wunderground v.1.15,2013-03-15 18:59:00,
2013-03-15 15:00:00,39.3,31.7,29.88,West,270,3.0,9.0,74,0.00,,,-99.99,241,WeatherLink 6.0.0,2013-03-15 19:00:00,
2013-03-15 15:04:00,39.3,31.7,29.88,WNW,285,2.0,9.0,74,0.00,,,0.00,204,Wunderground v.1.15,2013-03-15 19:04:00,
2013-03-15 15:09:00,39.4,31.8,29.87,WSW,238,2.0,9.0,74,0.00,,,0.00,179,Wunderground v.1.15,2013-03-15 19:09:00,
2013-03-15 15:14:00,39.4,31.8,29.87,WSW,246,4.0,7.0,74,0.00,,,0.00,158,Wunderground v.1.15,2013-03-15 19:14:00,
2013-03-15 15:19:00,39.3,31.7,29.87,West,267,1.0,8.0,74,0.00,,,0.00,153,Wunderground v.1.15,2013-03-15 19:19:00,
2013-03-15 15:25:00,39.5,31.9,29.87,WSW,237,5.0,5.0,74,0.00,,,0.00,162,Wunderground v.1.15,2013-03-15 19:25:00,
2013-03-15 15:30:00,39.5,31.9,29.87,WSW,246,5.0,6.0,74,0.00,,,0.00,135,Wunderground v.1.15,2013-03-15 19:30:00,
2013-03-15 15:35:00,39.4,31.8,29.86,West,271,4.0,6.0,74,0.00,,,0.00,135,Wunderground v.1.15,2013-03-15 19:35:00,
2013-03-15 15:40:00,39.3,31.7,29.86,West,272,4.0,8.0,74,0.00,,,0.00,148,Wunderground v.1.15,2013-03-15 19:40:00,
2013-03-15 15:45:00,39.2,31.9,29.86,West,267,2.0,8.0,75,0.00,,,0.00,148,Wunderground v.1.15,2013-03-15 19:45:00,
2013-03-15 15:50:00,39.4,31.8,29.86,WNW,294,1.0,8.0,74,0.00,,,0.00,132,Wunderground v.1.15,2013-03-15 19:50:00,
2013-03-15 15:55:00,39.4,31.8,29.86,West,269,2.0,8.0,74,0.00,,,0.00,121,Wunderground v.1.15,2013-03-15 19:55:00,
2013-03-15 16:00:00,39.3,31.7,29.87,SW,227,3.0,8.0,74,0.00,,,0.00,109,Wunderground v.1.15,2013-03-15 20:00:00,
2013-03-15 16:05:00,39.3,31.7,29.87,WSW,255,5.0,5.0,74,0.00,,,0.00,97,Wunderground v.1.15,2013-03-15 20:05:00,
2013-03-15 16:10:00,39.2,31.9,29.86,SW,230,2.0,7.0,75,0.00,,,0.00,113,Wunderground v.1.15,2013-03-15 20:10:00,
2013-03-15 16:15:00,39.2,31.9,29.87,West,265,1.0,4.0,75,0.00,,,0.00,116,Wunderground v.1.15,2013-03-15 20:15:00,
2013-03-15 16:20:00,39.2,31.9,29.87,West,262,8.0,8.0,75,0.00,,,0.00,111,Wunderground v.1.15,2013-03-15 20:20:00,
2013-03-15 16:25:00,39.1,31.8,29.86,WSW,243,5.0,9.0,75,0.00,,,0.00,116,Wunderground v.1.15,2013-03-15 20:25:00,
2013-03-15 16:29:00,39.1,31.8,29.86,WSW,256,7.0,9.0,75,0.00,,,0.00,137,Wunderground v.1.15,2013-03-15 20:29:00,
2013-03-15 16:30:00,39.2,31.9,29.86,West,270,4.0,9.0,75,0.00,,,-99.99,114,WeatherLink 6.0.0,2013-03-15 20:30:00,
2013-03-15 16:34:00,39.2,31.9,29.86,WSW,238,1.0,6.0,75,0.00,,,0.00,128,Wunderground v.1.15,2013-03-15 20:34:00,
2013-03-15 16:40:00,39.3,32.4,29.86,West,264,2.0,3.0,76,0.00,,,0.00,132,Wunderground v.1.15,2013-03-15 20:40:00,
2013-03-15 16:45:00,39.3,32.7,29.86,West,277,8.0,8.0,77,0.00,,,0.00,120,Wunderground v.1.15,2013-03-15 20:45:00,
2013-03-15 16:50:00,39.3,32.7,29.86,West,269,0.0,2.0,77,0.00,,,0.00,127,Wunderground v.1.15,2013-03-15 20:50:00,
2013-03-15 16:55:00,39.3,32.7,29.86,West,264,6.0,6.0,77,0.00,,,0.00,127,Wunderground v.1.15,2013-03-15 20:55:00,
2013-03-15 17:00:00,39.3,32.4,29.87,West,275,7.0,7.0,76,0.00,,,0.00,114,Wunderground v.1.15,2013-03-15 21:00:00,
2013-03-15 17:05:00,39.1,32.2,29.87,West,273,4.0,8.0,76,0.00,,,0.00,104,Wunderground v.1.15,2013-03-15 21:05:00,
2013-03-15 17:10:00,39.1,32.5,29.87,West,281,4.0,4.0,77,0.00,,,0.00,121,Wunderground v.1.15,2013-03-15 21:10:00,
2013-03-15 17:15:00,39.0,32.7,29.87,NW,309,4.0,7.0,78,0.00,,,0.00,113,Wunderground v.1.15,2013-03-15 21:15:00,
2013-03-15 17:20:00,38.9,32.9,29.86,NW,311,2.0,4.0,79,0.00,,,0.00,98,Wunderground v.1.15,2013-03-15 21:20:00,
2013-03-15 17:25:00,38.9,33.3,29.87,WNW,296,4.0,5.0,80,0.00,,,0.00,77,Wunderground v.1.15,2013-03-15 21:25:00,
2013-03-15 17:30:00,39.0,33.4,29.87,WNW,292,3.0,7.0,80,0.00,,,-99.99,101,WeatherLink 6.0.0,2013-03-15 21:30:00,
2013-03-15 17:31:00,38.6,33.0,29.87,West,265,0.0,3.0,80,0.00,,,0.00,67,Wunderground v.1.15,2013-03-15 21:31:00,
2013-03-15 17:36:00,38.3,33.3,29.87,WNW,290,5.0,5.0,82,0.00,,,0.00,58,Wunderground v.1.15,2013-03-15 21:36:00,
2013-03-15 17:41:00,38.1,33.1,29.87,West,265,1.0,3.0,82,0.00,,,0.00,58,Wunderground v.1.15,2013-03-15 21:41:00,
2013-03-15 17:46:00,37.9,33.2,29.87,NW,314,3.0,5.0,83,0.00,,,0.00,60,Wunderground v.1.15,2013-03-15 21:46:00,
2013-03-15 17:51:00,37.8,33.1,29.87,WNW,294,1.0,4.0,83,0.00,,,0.00,60,Wunderground v.1.15,2013-03-15 21:51:00,
2013-03-15 17:56:00,37.6,33.2,29.88,WNW,297,3.0,6.0,84,0.00,,,0.00,53,Wunderground v.1.15,2013-03-15 21:56:00,
2013-03-15 18:00:00,38.0,33.9,29.88,West,270,2.0,6.0,85,0.00,,,-99.99,57,WeatherLink 6.0.0,2013-03-15 22:00:00,
2013-03-15 18:01:00,37.4,33.3,29.87,West,278,2.0,3.0,85,0.00,,,0.01,51,Wunderground v.1.15,2013-03-15 22:01:00,
2013-03-15 18:06:00,37.3,33.2,29.88,NW,311,3.0,5.0,85,0.00,,,0.01,49,Wunderground v.1.15,2013-03-15 22:06:00,
2013-03-15 18:11:00,37.1,33.3,29.87,NW,314,2.0,2.0,86,0.00,,,0.01,42,Wunderground v.1.15,2013-03-15 22:11:00,
2013-03-15 18:17:00,36.9,33.4,29.88,WNW,285,0.0,4.0,87,0.00,,,0.01,42,Wunderground v.1.15,2013-03-15 22:17:00,
2013-03-15 18:22:00,36.9,33.4,29.88,WNW,285,1.0,4.0,87,0.00,,,0.01,42,Wunderground v.1.15,2013-03-15 22:22:00,
2013-03-15 18:27:00,36.8,33.3,29.88,WNW,290,3.0,4.0,87,0.00,,,0.01,40,Wunderground v.1.15,2013-03-15 22:27:00,
2013-03-15 18:30:00,37.0,33.8,29.88,WNW,292,2.0,5.0,88,0.01,,,-99.99,44,WeatherLink 6.0.0,2013-03-15 22:30:00,
2013-03-15 18:32:00,36.7,33.5,29.87,West,279,2.0,4.0,88,0.00,,,0.01,46,Wunderground v.1.15,2013-03-15 22:32:00,
2013-03-15 18:37:00,36.6,33.4,29.87,WNW,296,2.0,5.0,88,0.00,,,0.01,40,Wunderground v.1.15,2013-03-15 22:37:00,
2013-03-15 18:42:00,36.6,33.4,29.87,West,274,1.0,3.0,88,0.00,,,0.01,37,Wunderground v.1.15,2013-03-15 22:42:00,
2013-03-15 18:47:00,36.5,33.3,29.87,West,274,0.0,3.0,88,0.00,,,0.02,30,Wunderground v.1.15,2013-03-15 22:47:00,
2013-03-15 18:52:00,36.5,33.6,29.87,West,274,0.0,3.0,89,0.00,,,0.02,25,Wunderground v.1.15,2013-03-15 22:52:00,
2013-03-15 18:57:00,36.4,33.5,29.87,WNW,283,1.0,3.0,89,0.00,,,0.02,25,Wunderground v.1.15,2013-03-15 22:57:00,
2013-03-15 19:00:00,36.5,33.6,29.87,WNW,292,1.0,5.0,89,0.02,,,-99.99,32,WeatherLink 6.0.0,2013-03-15 23:00:00,
2013-03-15 19:02:00,36.2,33.3,29.87,WNW,288,3.0,4.0,89,0.00,,,0.02,23,Wunderground v.1.15,2013-03-15 23:02:00,
2013-03-15 19:07:00,36.0,33.1,29.87,West,270,2.0,4.0,89,0.00,,,0.02,18,Wunderground v.1.15,2013-03-15 23:07:00,
2013-03-15 19:12:00,35.9,33.0,29.87,NNW,336,1.0,2.0,89,0.00,,,0.03,14,Wunderground v.1.15,2013-03-15 23:12:00,
2013-03-15 19:17:00,35.8,33.2,29.87,NNW,336,0.0,2.0,90,0.00,,,0.03,11,Wunderground v.1.15,2013-03-15 23:17:00,
2013-03-15 19:22:00,35.7,33.1,29.87,NNW,336,1.0,2.0,90,0.00,,,0.03,7,Wunderground v.1.15,2013-03-15 23:22:00,
2013-03-15 19:27:00,35.5,32.9,29.87,NNW,346,0.0,4.0,90,0.00,,,0.03,5,Wunderground v.1.15,2013-03-15 23:27:00,
2013-03-15 19:30:00,35.8,33.2,29.87,NNW,337,1.0,4.0,90,0.02,,,-99.99,12,WeatherLink 6.0.0,2013-03-15 23:30:00,
2013-03-15 19:32:00,35.4,32.8,29.87,NNW,346,0.0,3.0,90,0.00,,,0.03,0,Wunderground v.1.15,2013-03-15 23:32:00,
2013-03-15 19:37:00,35.4,33.0,29.88,NNW,346,0.0,3.0,91,0.00,,,0.03,0,Wunderground v.1.15,2013-03-15 23:37:00,
2013-03-15 19:42:00,35.3,32.9,29.88,NNW,336,0.0,3.0,91,0.00,,,0.03,0,Wunderground v.1.15,2013-03-15 23:42:00,
2013-03-15 19:47:00,35.2,32.8,29.88,NNW,336,0.0,3.0,91,0.00,,,0.03,0,Wunderground v.1.15,2013-03-15 23:47:00,
2013-03-15 19:52:00,35.1,32.7,29.88,NNW,336,0.0,2.0,91,0.00,,,0.03,0,Wunderground v.1.15,2013-03-15 23:52:00,
2013-03-15 19:57:00,35.1,32.7,29.88,NNW,336,1.0,3.0,91,0.00,,,0.03,0,Wunderground v.1.15,2013-03-15 23:57:00,
2013-03-15 20:00:00,35.2,32.8,29.88,NNW,337,1.0,3.0,91,0.02,,,-99.99,0,WeatherLink 6.0.0,2013-03-16 00:00:00,
2013-03-15 20:02:00,35.0,32.6,29.88,NNW,336,1.0,3.0,91,0.00,,,0.04,0,Wunderground v.1.15,2013-03-16 00:02:00,
2013-03-15 20:07:00,34.9,32.8,29.88,NNW,337,2.0,3.0,92,0.00,,,0.04,0,Wunderground v.1.15,2013-03-16 00:07:00,
2013-03-15 20:12:00,34.8,32.7,29.88,NNW,337,0.0,1.0,92,0.00,,,0.04,0,Wunderground v.1.15,2013-03-16 00:12:00,
2013-03-15 20:17:00,34.7,32.6,29.88,NNW,337,0.0,2.0,92,0.00,,,0.04,0,Wunderground v.1.15,2013-03-16 00:17:00,
2013-03-15 20:22:00,34.6,32.5,29.88,NNW,337,1.0,3.0,92,0.00,,,0.04,0,Wunderground v.1.15,2013-03-16 00:22:00,
2013-03-15 20:27:00,34.5,32.4,29.87,NNW,337,1.0,3.0,92,0.00,,,0.04,0,Wunderground v.1.15,2013-03-16 00:27:00,
2013-03-15 20:30:00,34.7,32.6,29.87,NNW,337,1.0,4.0,92,0.01,,,-99.99,0,WeatherLink 6.0.0,2013-03-16 00:30:00,
2013-03-15 20:32:00,34.4,32.3,29.87,North,11,2.0,4.0,92,0.00,,,0.04,0,Wunderground v.1.15,2013-03-16 00:32:00,
2013-03-15 20:37:00,34.3,32.2,29.87,North,11,0.0,4.0,92,0.00,,,0.04,0,Wunderground v.1.15,2013-03-16 00:37:00,
2013-03-15 20:42:00,34.2,32.1,29.87,North,11,0.0,2.0,92,0.00,,,0.04,0,Wunderground v.1.15,2013-03-16 00:42:00,
2013-03-15 20:47:00,34.2,32.1,29.87,North,11,2.0,2.0,92,0.00,,,0.04,0,Wunderground v.1.15,2013-03-16 00:47:00,
2013-03-15 20:53:00,34.1,32.0,29.87,North,11,0.0,0.0,92,0.00,,,0.05,0,Wunderground v.1.15,2013-03-16 00:53:00,
2013-03-15 20:58:00,34.0,31.9,29.87,North,11,0.0,0.0,92,0.00,,,0.05,0,Wunderground v.1.15,2013-03-16 00:58:00,
2013-03-15 21:00:00,34.2,32.1,29.87,North,0,0.0,3.0,92,0.01,,,-99.99,0,WeatherLink 6.0.0,2013-03-16 01:00:00,
2013-03-15 21:03:00,34.0,31.9,29.87,North,11,0.0,0.0,92,0.00,,,0.05,0,Wunderground v.1.15,2013-03-16 01:03:00,
2013-03-15 21:08:00,33.9,31.8,29.87,North,11,0.0,0.0,92,0.00,,,0.05,0,Wunderground v.1.15,2013-03-16 01:08:00,
2013-03-15 21:13:00,33.9,31.8,29.87,North,11,0.0,0.0,92,0.00,,,0.05,0,Wunderground v.1.15,2013-03-16 01:13:00,
2013-03-15 21:18:00,33.8,31.7,29.87,North,11,0.0,1.0,92,0.00,,,0.05,0,Wunderground v.1.15,2013-03-16 01:18:00,
2013-03-15 21:23:00,33.8,32.0,29.87,North,11,0.0,2.0,93,0.00,,,0.05,0,Wunderground v.1.15,2013-03-16 01:23:00,
2013-03-15 21:28:00,33.8,32.0,29.87,North,11,1.0,2.0,93,0.00,,,0.05,0,Wunderground v.1.15,2013-03-16 01:28:00,
2013-03-15 21:30:00,33.8,32.0,29.87,North,0,0.0,2.0,93,0.01,,,-99.99,0,WeatherLink 6.0.0,2013-03-16 01:30:00,
2013-03-15 21:33:00,33.7,31.9,29.87,North,11,0.0,1.0,93,0.00,,,0.05,0,Wunderground v.1.15,2013-03-16 01:33:00,
2013-03-15 21:38:00,33.7,31.9,29.87,North,11,0.0,2.0,93,0.00,,,0.06,0,Wunderground v.1.15,2013-03-16 01:38:00,
2013-03-15 21:43:00,33.7,31.9,29.87,North,11,2.0,2.0,93,0.00,,,0.06,0,Wunderground v.1.15,2013-03-16 01:43:00,
2013-03-15 21:48:00,33.6,31.8,29.87,North,11,0.0,2.0,93,0.00,,,0.06,0,Wunderground v.1.15,2013-03-16 01:48:00,
2013-03-15 21:53:00,33.5,31.7,29.87,North,11,1.0,2.0,93,0.00,,,0.06,0,Wunderground v.1.15,2013-03-16 01:53:00,
2013-03-15 21:58:00,33.5,31.7,29.87,North,11,0.0,2.0,93,0.00,,,0.06,0,Wunderground v.1.15,2013-03-16 01:58:00,
2013-03-15 22:00:00,33.6,31.8,29.87,North,0,1.0,3.0,93,0.01,,,-99.99,0,WeatherLink 6.0.0,2013-03-16 02:00:00,
2013-03-15 22:03:00,33.4,31.6,29.87,North,11,1.0,3.0,93,0.00,,,0.06,0,Wunderground v.1.15,2013-03-16 02:03:00,
2013-03-15 22:08:00,33.4,31.6,29.87,North,11,2.0,3.0,93,0.00,,,0.06,0,Wunderground v.1.15,2013-03-16 02:08:00,
2013-03-15 22:13:00,33.4,31.6,29.87,North,11,1.0,2.0,93,0.00,,,0.06,0,Wunderground v.1.15,2013-03-16 02:13:00,
2013-03-15 22:18:00,33.3,31.5,29.87,North,11,2.0,2.0,93,0.00,,,0.06,0,Wunderground v.1.15,2013-03-16 02:18:00,
2013-03-15 22:23:00,33.3,31.5,29.87,North,11,0.0,2.0,93,0.00,,,0.06,0,Wunderground v.1.15,2013-03-16 02:23:00,
2013-03-15 22:28:00,33.3,31.5,29.86,North,11,0.0,2.0,93,0.00,,,0.06,0,Wunderground v.1.15,2013-03-16 02:28:00,
2013-03-15 22:30:00,33.4,31.6,29.86,North,0,1.0,3.0,93,0.01,,,-99.99,0,WeatherLink 6.0.0,2013-03-16 02:30:00,
2013-03-15 22:33:00,33.2,31.4,29.86,North,11,0.0,1.0,93,0.00,,,0.06,0,Wunderground v.1.15,2013-03-16 02:33:00,
2013-03-15 22:38:00,33.2,31.4,29.86,North,11,1.0,2.0,93,0.00,,,0.06,0,Wunderground v.1.15,2013-03-16 02:38:00,
2013-03-15 22:43:00,33.1,31.3,29.86,North,11,4.0,4.0,93,0.00,,,0.06,0,Wunderground v.1.15,2013-03-16 02:43:00,
2013-03-15 22:48:00,33.1,31.3,29.86,NNE,32,1.0,4.0,93,0.00,,,0.06,0,Wunderground v.1.15,2013-03-16 02:48:00,
2013-03-15 22:53:00,33.1,31.3,29.86,NE,55,1.0,3.0,93,0.00,,,0.06,0,Wunderground v.1.15,2013-03-16 02:53:00,
2013-03-15 22:58:00,33.2,31.4,29.86,NE,55,1.0,3.0,93,0.00,,,0.06,0,Wunderground v.1.15,2013-03-16 02:58:00,
2013-03-15 23:00:00,33.1,31.3,29.86,NE,45,1.0,4.0,93,0.00,,,-99.99,0,WeatherLink 6.0.0,2013-03-16 03:00:00,
2013-03-15 23:03:00,33.2,31.4,29.86,NE,55,1.0,4.0,93,0.00,,,0.06,0,Wunderground v.1.15,2013-03-16 03:03:00,
2013-03-15 23:08:00,33.3,31.5,29.86,NE,55,3.0,4.0,93,0.00,,,0.06,0,Wunderground v.1.15,2013-03-16 03:08:00,
2013-03-15 23:13:00,33.4,31.6,29.86,NE,55,1.0,3.0,93,0.00,,,0.06,0,Wunderground v.1.15,2013-03-16 03:13:00,
2013-03-15 23:18:00,33.4,31.6,29.86,NE,55,1.0,3.0,93,0.00,,,0.06,0,Wunderground v.1.15,2013-03-16 03:18:00,
2013-03-15 23:23:00,33.3,31.5,29.86,NE,55,0.0,2.0,93,0.00,,,0.06,0,Wunderground v.1.15,2013-03-16 03:23:00,
2013-03-15 23:28:00,33.2,31.4,29.86,NE,55,0.0,2.0,93,0.00,,,0.06,0,Wunderground v.1.15,2013-03-16 03:28:00,
2013-03-15 23:30:00,33.3,31.5,29.85,NE,45,1.0,4.0,93,0.00,,,-99.99,0,WeatherLink 6.0.0,2013-03-16 03:30:00,
2013-03-15 23:33:00,33.2,31.4,29.85,NE,55,0.0,3.0,93,0.00,,,0.06,0,Wunderground v.1.15,2013-03-16 03:33:00,
2013-03-15 23:38:00,33.2,31.7,29.85,NE,55,1.0,3.0,94,0.00,,,0.06,0,Wunderground v.1.15,2013-03-16 03:38:00,
2013-03-15 23:43:00,33.1,31.6,29.85,NE,55,1.0,1.0,94,0.00,,,0.06,0,Wunderground v.1.15,2013-03-16 03:43:00,
2013-03-15 23:48:00,33.1,31.6,29.84,NE,55,0.0,3.0,94,0.00,,,0.06,0,Wunderground v.1.15,2013-03-16 03:48:00,
2013-03-15 23:53:00,33.1,31.3,29.85,NE,55,2.0,3.0,93,0.00,,,0.06,0,Wunderground v.1.15,2013-03-16 03:53:00,
2013-03-15 23:58:00,33.1,31.6,29.84,NE,55,2.0,3.0,94,0.00,,,0.06,0,Wunderground v.1.15,2013-03-16 03:58:00,